Regional Weather Roundup
Issued by NWS

Home | Current Version | Previous Version | Graphics & Text | Print | Product List | Glossary On
Versions: 1 2 3 4 5 6 7 8 9 10 11 12 13 14 15 16 17 18 19 20 21 22 23 24 25 26 27 28 29 30 31 32 33 34 35 36 37 38 39 40 41 42 43 44 45 46 47 48 49 50
000
ASUS43 KIND 171109
RWRIN

WEATHER ROUNDUP FOR INDIANA
NATIONAL WEATHER SERVICE INDIANAPOLIS IN
600 AM EST SUN DEC 17 2017

NOTE: "FAIR" INDICATES FEW OR NO CLOUDS BELOW 12,000 FEET WITH NO
SIGNIFICANT WEATHER AND/OR OBSTRUCTIONS TO VISIBILITY.

* - STATION DOES NOT REPORT WEATHER SUCH AS PRECIPITATION OR FOG.

+ - STATION NOT QUALITY CONTROLLED BY THE NATIONAL WEATHER SERVICE.
    USE DATA WITH CAUTION...ESPECIALLY DEWPOINT AND RELATIVE
    HUMIDITY OBSERVATIONS.

INZ001>003-010>013-019-020-171200-
NORTHWEST INDIANA

CITY           SKY/WX    TMP DP  RH WIND       PRES   REMARKS
GARY /AIRPORT/ PTCLDY    30  27  86 CALM      30.08R
KNOX *+        MOCLDY    30  28  93 CALM      30.08R
LA PORTE +     CLOUDY    26  24  95 E3        30.08S
MICHIGAN CITY+ CLOUDY    27  27 100 CALM      30.08R
MONTICELLO +   CLOUDY    33  28  80 CALM      30.07R
RENSSELAER +   CLOUDY    32  25  74 CALM      30.07S
VALPARAISO     CLOUDY    29  26  89 NE5       30.07R WCI  24

$$

LMZ046-743>745-171200-
SOUTHERN LAKE MICHIGAN

STATION/POSITION TIME  TEMP    WIND        PRES    WAVE
                       AIR SEA DIR/SP/G            HT
                 (UTC) (F)     (DEG/KT/KT) (MB)    (FT)
BURNS HARBOR     1040   36      CALM  /  3 1018.6S
MICHIGAN CITY    1040   31     130/  7/  8   N/A

$$

INZ004-005-014>016-021>024-171200-
NORTH CENTRAL INDIANA

CITY           SKY/WX    TMP DP  RH WIND       PRES   REMARKS
GOSHEN         CLOUDY    29  25  85 E5        30.09R WCI  24
LOGANSPORT +   CLOUDY    32  28  86 SE5       30.09S WCI  27
PERU/GRISSOM   CLOUDY    33  29  85 S5        30.08S WCI  29
ROCHESTER +    CLOUDY    32  30  93 CALM      30.08F
SOUTH BEND     CLOUDY    27  26  96 E6        30.09S WCI  20
WARSAW +       MOCLDY    32  28  86 SE3       30.09S

$$

INZ006>009-017-018-025>027-171200-
NORTHEAST INDIANA

CITY           SKY/WX    TMP DP  RH WIND       PRES   REMARKS
AUBURN +       FOG       28  27  93 E7        30.13R VSB 1/2 WCI  21
FORT WAYNE     CLOUDY    27  25  92 E6        30.12R WCI  20
HUNTINGTON +   CLOUDY    28  27  95 CALM      30.10F

$$

INZ028-029-035-036-043>045-051>053-171200-
WEST CENTRAL INDIANA

CITY           SKY/WX    TMP DP  RH WIND       PRES   REMARKS
CRAWFORDSVL +  CLOUDY    35  29  79 S9        30.09R WCI  28
GREENCASTLE +  MOCLDY    39  30  70 S5        30.11S WCI  36
LAFAYETTE      CLOUDY    37  30  75 S5        30.08S WCI  33
TERRE HAUTE    MOCLDY    40  29  64 S7        30.11S WCI  35

$$

INZ030>032-037>040-046>048-054>057-064-065-171200-
CENTRAL INDIANA

CITY           SKY/WX    TMP DP  RH WIND       PRES   REMARKS
FRANKFORT +    CLOUDY    37  31  79 S6        30.09S WCI  32
GREENWOOD *+   CLOUDY    38  31  76 SE5       30.12R WCI  35
INDIANAPOLIS   CLOUDY    38  29  70 S7        30.11R WCI  33
-EAGLE CREEK   CLOUDY    39  28  64 S3        30.10R
KOKOMO +       CLOUDY    32  28  85 S6        30.09  WCI  26
MARION +       CLOUDY    33  28  83 S7        30.11R WCI  26
MT COMFORT *+  CLOUDY    34  32  93 S6        30.11S WCI  29
SHELBYVILLE    MOCLDY    39  28  64 S12       30.12S WCI  32
ZIONSVILLE +   CLOUDY    37  29  75 S7        30.10R WCI  31

$$

INZ033-034-041-042-049-050-058-059-171200-
EAST CENTRAL INDIANA

CITY           SKY/WX    TMP DP  RH WIND       PRES   REMARKS
MUNCIE         CLOUDY    38  28  67 S6        30.10S WCI  33
RICHMOND +     CLOUDY    32  30  93 S8        30.13S WCI  25

$$

INZ060-061-067>069-081>083-085>088-171200-
SOUTHWEST INDIANA

CITY           SKY/WX    TMP DP  RH WIND       PRES   REMARKS
EVANSVILLE     CLOUDY    42  33  70 SW3       30.16R
HUNTINGBURG +  CLOUDY    41  31  67 S6        30.15F
WASHINGTON +   MOCLDY    39  30  69 S8        30.13R WCI  33

$$

INZ062-063-066-070>080-084-089>092-171200-
SOUTH CENTRAL AND SOUTHEAST INDIANA

CITY           SKY/WX    TMP DP  RH WIND       PRES   REMARKS
BEDFORD +      MOCLDY    41  30  65 S6        30.13S
BLOOMINGTON    MOCLDY    41  29  62 S5        30.12R
MADISON *+     CLOUDY    37  30  75 CALM      30.17F
NORTH VERNON + MOCLDY    37  28  70 S5        30.14F WCI  34

$$





USA.gov is the U.S. government's official web portal to all federal, state and local government web resources and services.